METEOR 2-17 DEB

Satellite information

Favourite Embed

Satellite Type and Status

DEBRISIN ORBIT

Key statistics

Satellite METEOR 2-17 DEB at a glance.

Uptime

13616

Days in orbit

Revolutions

≈ 14.0

Per day

Orbit

LEO

Low Earth Orbit

Inclination

82.5

Latest

Satellite identification and parameters

Extended collection of information and parameters for METEOR 2-17 DEB.

Object identification

Identified? True

Debris? True

Object name: METEOR 2-17 DEB

International designator: 1988-005E

Object number (NORAD): 28990

Object ID (CCSDS): 28990

Country: COMMONWEALTH OF INDEPENDENT STATES (CIS)

Current information (Y/N): Y

RCS size: SMALL

Orbital parameters

Period: 102.668 minutes

Inclination: 82.5142 deg

SMA: 7263.025 km

Apoapsis: 895.28 km

Periapsis: 874.5 km

RAAN: 205.8202 deg

Eccentricy: 0.0014305

Argument of periapsis: 200.3788 deg

Mean anomaly: 159.6813 deg

Mean motion: 14.0257623 rev/day

Mean motion (dot): 0.00004717 rev/day2

B* drag term: 0.0030504 1/REarth

Two-line elements (TLE)

Creation date: May 10, 2025, 5:27 p.m.

Reference frame: TEME

Reference center: EARTH

Epoch: May 10, 2025, 11:04 a.m. UTC

TLE line 0: 0 METEOR 2-17 DEB

TLE line 1: 1 28990U 88005E 25130.46130575 .00004717 00000-0 30504-2 0 9994

TLE line 2: 2 28990 82.5142 205.8202 0014305 200.3788 159.6813 14.02576230549250

Live tracking on map

Real-time ground track for satellite METEOR 2-17 DEB.

In-orbit conjunctions

A list of the most updated potential collisions computed for object METEOR 2-17 DEB.

Target Orbit TCA Probability of collision Miss distance Type
CZ-4 DEB SSO 2024-09-28 17:18:05 0.0001244935 246.0 (m) DEBRIS

Associated space launch

Second generation soviet meteorological satellite

METEOR 2-17 DEB was lifted into orbit during the mission ‘Tsiklon-3 | Meteor-2 17’, on board a Tsiklon-3 space rocket.

The launch took place on Jan. 30, 1988, 10:59 a.m. from 32/1.

For more information about the launch, click the button.

Launch to space Tsiklon-3 | Meteor-2 17
Tsiklon-3 | Meteor-2 17

Agency: N/A

Status: Launch Successful

Launch date: Jan. 30, 1988, 10:59 a.m. UTC

Rocket: Tsiklon-3

Launch pad: 32/1

Location: Plesetsk Cosmodrome, Russian Federation

...

Latest news about this satellite

There are no fresh news available about this satellite. Check back as we update our databases every day.


Newsletter sign-up

Weekly statistics, charts and insights to help you stay on top of the space industry.